Tabellarische Ansicht des 10.6.2016


Die einzelnen Werte des Tages

Uhrzeit Temperatur Luftdruck Luftfeuchte Wind Hi-Wind Taupunkt THW Index Wind Chill Heat Index Solar- strahlung Regen

00:00

13.2 C

1013.1 hpa

74 %

0.0 km/h aus 116

6.4 km/h aus WNW

8.6 C

12.8 C

13.2 C

12.8 C

0 W/m

0.00 mm

00:05

13.1 C

1013.1 hpa

74 %

0.0 km/h aus 112

0.0 km/h aus ---

8.5 C

12.7 C

13.1 C

12.7 C

0 W/m

0.00 mm

00:10

12.9 C

1013.1 hpa

74 %

0.0 km/h aus 115

0.0 km/h aus ---

8.4 C

12.6 C

12.9 C

12.6 C

0 W/m

0.00 mm

00:15

12.8 C

1013.1 hpa

74 %

0.0 km/h aus 117

0.0 km/h aus ---

8.3 C

12.5 C

12.8 C

12.5 C

0 W/m

0.00 mm

00:20

12.7 C

1013.1 hpa

75 %

0.0 km/h aus 116

6.4 km/h aus WNW

8.4 C

12.4 C

12.7 C

12.4 C

0 W/m

0.00 mm

00:25

12.6 C

1013.1 hpa

75 %

0.0 km/h aus 117

4.8 km/h aus WNW

8.3 C

12.3 C

12.6 C

12.3 C

0 W/m

0.00 mm

00:30

12.5 C

1013.0 hpa

76 %

0.0 km/h aus 114

0.0 km/h aus ---

8.4 C

12.2 C

12.5 C

12.2 C

0 W/m

0.00 mm

00:35

12.4 C

1013.0 hpa

76 %

0.0 km/h aus 116

1.6 km/h aus WNW

8.3 C

12.1 C

12.4 C

12.1 C

0 W/m

0.00 mm

00:40

12.2 C

1013.0 hpa

76 %

0.0 km/h aus 117

8.0 km/h aus WNW

8.1 C

11.9 C

12.2 C

11.9 C

0 W/m

0.00 mm

00:45

12.1 C

1013.2 hpa

77 %

3.2 km/h aus 117

9.7 km/h aus W

8.2 C

11.9 C

12.1 C

11.9 C

0 W/m

0.00 mm

00:50

12.0 C

1013.2 hpa

77 %

3.2 km/h aus 117

9.7 km/h aus W

8.1 C

11.8 C

12.0 C

11.8 C

0 W/m

0.00 mm

00:55

11.9 C

1013.2 hpa

77 %

1.6 km/h aus 115

8.0 km/h aus W

8.0 C

11.7 C

11.9 C

11.7 C

0 W/m

0.00 mm

01:00

11.9 C

1013.1 hpa

77 %

1.6 km/h aus 114

9.7 km/h aus W

8.0 C

11.7 C

11.9 C

11.7 C

0 W/m

0.00 mm

01:05

11.8 C

1013.1 hpa

77 %

0.0 km/h aus 117

6.4 km/h aus W

7.9 C

11.6 C

11.8 C

11.6 C

0 W/m

0.00 mm

01:10

11.8 C

1013.1 hpa

77 %

1.6 km/h aus 117

11.3 km/h aus NW

7.9 C

11.6 C

11.8 C

11.6 C

0 W/m

0.00 mm

01:15

11.7 C

1012.9 hpa

78 %

1.6 km/h aus 117

9.7 km/h aus NW

8.0 C

11.4 C

11.7 C

11.4 C

0 W/m

0.00 mm

01:20

11.7 C

1012.9 hpa

78 %

1.6 km/h aus 117

11.3 km/h aus WNW

8.0 C

11.4 C

11.7 C

11.4 C

0 W/m

0.00 mm

01:25

11.6 C

1012.9 hpa

78 %

3.2 km/h aus 114

14.5 km/h aus WNW

7.9 C

11.4 C

11.6 C

11.4 C

0 W/m

0.00 mm

01:30

11.6 C

1012.8 hpa

79 %

0.0 km/h aus 116

6.4 km/h aus WNW

8.0 C

11.4 C

11.6 C

11.4 C

0 W/m

0.00 mm

01:35

11.5 C

1012.8 hpa

79 %

0.0 km/h aus 116

6.4 km/h aus WNW

8.0 C

11.3 C

11.5 C

11.3 C

0 W/m

0.00 mm

01:40

11.4 C

1012.8 hpa

79 %

1.6 km/h aus 117

9.7 km/h aus NW

7.9 C

11.3 C

11.4 C

11.3 C

0 W/m

0.00 mm

01:45

11.3 C

1012.8 hpa

80 %

1.6 km/h aus 117

9.7 km/h aus WNW

8.0 C

11.2 C

11.3 C

11.2 C

0 W/m

0.00 mm

01:50

11.3 C

1012.8 hpa

80 %

1.6 km/h aus 115

9.7 km/h aus WNW

8.0 C

11.2 C

11.3 C

11.2 C

0 W/m

0.00 mm

01:55

11.2 C

1012.8 hpa

81 %

1.6 km/h aus 114

14.5 km/h aus WNW

8.1 C

11.1 C

11.2 C

11.1 C

0 W/m

0.00 mm

02:00

11.2 C

1012.7 hpa

81 %

3.2 km/h aus 116

8.0 km/h aus WNW

8.0 C

11.1 C

11.2 C

11.1 C

0 W/m

0.00 mm

02:05

11.1 C

1012.7 hpa

81 %

4.8 km/h aus 117

14.5 km/h aus WNW

7.9 C

10.9 C

11.0 C

10.9 C

0 W/m

0.00 mm

02:10

11.0 C

1012.7 hpa

82 %

0.0 km/h aus 117

6.4 km/h aus WNW

8.0 C

10.9 C

11.0 C

10.9 C

0 W/m

0.00 mm

02:15

10.9 C

1012.6 hpa

82 %

1.6 km/h aus 116

9.7 km/h aus WNW

8.0 C

10.9 C

10.9 C

10.9 C

0 W/m

0.00 mm

02:20

10.9 C

1012.6 hpa

82 %

0.0 km/h aus 114

8.0 km/h aus WNW

7.9 C

10.8 C

10.9 C

10.8 C

0 W/m

0.00 mm

02:25

10.9 C

1012.6 hpa

83 %

0.0 km/h aus 114

8.0 km/h aus W

8.1 C

10.8 C

10.9 C

10.8 C

0 W/m

0.00 mm

02:30

10.8 C

1012.3 hpa

83 %

1.6 km/h aus 118

11.3 km/h aus W

8.1 C

10.8 C

10.8 C

10.8 C

0 W/m

0.00 mm

02:35

10.8 C

1012.3 hpa

83 %

1.6 km/h aus 117

6.4 km/h aus W

8.0 C

10.7 C

10.8 C

10.7 C

0 W/m

0.00 mm

02:40

10.7 C

1012.3 hpa

84 %

1.6 km/h aus 117

8.0 km/h aus W

8.1 C

10.7 C

10.7 C

10.7 C

0 W/m

0.00 mm

02:45

10.6 C

1012.3 hpa

84 %

0.0 km/h aus 116

3.2 km/h aus W

8.0 C

10.6 C

10.6 C

10.6 C

0 W/m

0.00 mm

02:50

10.6 C

1012.3 hpa

84 %

0.0 km/h aus 114

3.2 km/h aus W

8.0 C

10.6 C

10.6 C

10.6 C

0 W/m

0.00 mm

02:55

10.6 C

1012.3 hpa

84 %

0.0 km/h aus 116

4.8 km/h aus WNW

8.0 C

10.6 C

10.6 C

10.6 C

0 W/m

0.00 mm

03:00

10.5 C

1012.3 hpa

84 %

0.0 km/h aus 116

3.2 km/h aus W

7.9 C

10.5 C

10.5 C

10.5 C

0 W/m

0.00 mm

03:05

10.4 C

1012.3 hpa

84 %

1.6 km/h aus 117

9.7 km/h aus W

7.9 C

10.4 C

10.4 C

10.4 C

0 W/m

0.00 mm

03:10

10.4 C

1012.3 hpa

85 %

0.0 km/h aus 117

0.0 km/h aus ---

8.0 C

10.4 C

10.4 C

10.4 C

0 W/m

0.00 mm

03:15

10.4 C

1012.1 hpa

85 %

0.0 km/h aus 116

1.6 km/h aus W

8.0 C

10.4 C

10.4 C

10.4 C

0 W/m

0.00 mm

03:20

10.4 C

1012.1 hpa

85 %

0.0 km/h aus 113

0.0 km/h aus ---

8.0 C

10.4 C

10.4 C

10.4 C

0 W/m

0.00 mm

03:25

10.3 C

1012.1 hpa

85 %

1.6 km/h aus 117

8.0 km/h aus W

7.9 C

10.3 C

10.3 C

10.3 C

0 W/m

0.00 mm

03:30

10.3 C

1011.9 hpa

85 %

0.0 km/h aus 117

3.2 km/h aus W

7.9 C

10.3 C

10.3 C

10.3 C

0 W/m

0.00 mm

03:35

10.3 C

1011.9 hpa

85 %

0.0 km/h aus 117

1.6 km/h aus W

7.9 C

10.3 C

10.3 C

10.3 C

0 W/m

0.00 mm

03:40

10.3 C

1011.9 hpa

86 %

1.6 km/h aus 117

6.4 km/h aus W

8.0 C

10.3 C

10.3 C

10.3 C

0 W/m

0.00 mm

03:45

10.3 C

1011.9 hpa

86 %

0.0 km/h aus 115

9.7 km/h aus WSW

8.0 C

10.3 C

10.3 C

10.3 C

0 W/m

0.00 mm

03:50

10.3 C

1011.9 hpa

86 %

1.6 km/h aus 114

9.7 km/h aus WSW

8.0 C

10.3 C

10.3 C

10.3 C

0 W/m

0.00 mm

03:55

10.3 C

1011.9 hpa

86 %

1.6 km/h aus 116

8.0 km/h aus WSW

8.0 C

10.3 C

10.3 C

10.3 C

0 W/m

0.00 mm

04:00

10.3 C

1011.8 hpa

87 %

1.6 km/h aus 117

6.4 km/h aus WSW

8.2 C

10.3 C

10.3 C

10.3 C

0 W/m

0.00 mm

04:05

10.3 C

1011.8 hpa

87 %

3.2 km/h aus 117

11.3 km/h aus W

8.2 C

10.3 C

10.3 C

10.3 C

0 W/m

0.00 mm

04:10

10.3 C

1011.8 hpa

87 %

3.2 km/h aus 117

11.3 km/h aus WSW

8.2 C

10.3 C

10.3 C

10.3 C

0 W/m

0.00 mm

04:15

10.3 C

1011.7 hpa

87 %

0.0 km/h aus 114

0.0 km/h aus ---

8.2 C

10.3 C

10.3 C

10.3 C

0 W/m

0.00 mm

04:20

10.3 C

1011.7 hpa

87 %

1.6 km/h aus 115

8.0 km/h aus WSW

8.2 C

10.3 C

10.3 C

10.3 C

0 W/m

0.00 mm

04:25

10.2 C

1011.7 hpa

87 %

0.0 km/h aus 117

3.2 km/h aus W

8.2 C

10.3 C

10.2 C

10.3 C

0 W/m

0.00 mm

04:30

10.3 C

1011.7 hpa

87 %

3.2 km/h aus 117

9.7 km/h aus W

8.2 C

10.3 C

10.3 C

10.3 C

0 W/m

0.00 mm

04:35

10.3 C

1011.7 hpa

87 %

1.6 km/h aus 117

8.0 km/h aus W

8.2 C

10.3 C

10.3 C

10.3 C

0 W/m

0.00 mm

04:40

10.3 C

1011.7 hpa

87 %

0.0 km/h aus 115

0.0 km/h aus ---

8.2 C

10.3 C

10.3 C

10.3 C

0 W/m

0.00 mm

04:45

10.3 C

1011.7 hpa

87 %

1.6 km/h aus 115

16.1 km/h aus WNW

8.2 C

10.3 C

10.3 C

10.3 C

0 W/m

0.00 mm

04:50

10.3 C

1011.7 hpa

87 %

1.6 km/h aus 115

9.7 km/h aus W

8.2 C

10.3 C

10.3 C

10.3 C

0 W/m

0.00 mm

04:55

10.3 C

1011.7 hpa

87 %

1.6 km/h aus 116

8.0 km/h aus SW

8.2 C

10.3 C

10.3 C

10.3 C

0 W/m

0.00 mm

05:00

10.3 C

1011.6 hpa

87 %

0.0 km/h aus 117

6.4 km/h aus W

8.2 C

10.3 C

10.3 C

10.3 C

0 W/m

0.00 mm

05:05

10.3 C

1011.6 hpa

87 %

0.0 km/h aus 116

4.8 km/h aus NW

8.2 C

10.3 C

10.3 C

10.3 C

0 W/m

0.00 mm

05:10

10.3 C

1011.6 hpa

87 %

1.6 km/h aus 116

6.4 km/h aus NW

8.2 C

10.3 C

10.3 C

10.3 C

0 W/m

0.00 mm

05:15

10.3 C

1011.3 hpa

87 %

1.6 km/h aus 114

4.8 km/h aus NW

8.2 C

10.3 C

10.3 C

10.3 C

2 W/m

0.00 mm

05:20

10.3 C

1011.3 hpa

87 %

0.0 km/h aus 117

3.2 km/h aus NNW

8.2 C

10.3 C

10.3 C

10.3 C

6 W/m

0.00 mm

05:25

10.3 C

1011.3 hpa

87 %

0.0 km/h aus 116

0.0 km/h aus ---

8.2 C

10.3 C

10.3 C

10.3 C

9 W/m

0.00 mm

05:30

10.3 C

1011.4 hpa

87 %

0.0 km/h aus 117

0.0 km/h aus ---

8.2 C

10.3 C

10.3 C

10.3 C

11 W/m

0.00 mm

05:35

10.3 C

1011.4 hpa

88 %

1.6 km/h aus 116

6.4 km/h aus W

8.4 C

10.4 C

10.3 C

10.4 C

12 W/m

0.00 mm

05:40

10.3 C

1011.4 hpa

88 %

1.6 km/h aus 116

8.0 km/h aus W

8.4 C

10.4 C

10.3 C

10.4 C

16 W/m

0.00 mm

05:45

10.3 C

1011.3 hpa

88 %

1.6 km/h aus 115

6.4 km/h aus W

8.4 C

10.4 C

10.3 C

10.4 C

21 W/m

0.00 mm

05:50

10.3 C

1011.3 hpa

88 %

0.0 km/h aus 115

3.2 km/h aus WNW

8.4 C

10.4 C

10.3 C

10.4 C

27 W/m

0.00 mm

05:55

10.3 C

1011.3 hpa

88 %

0.0 km/h aus 115

9.7 km/h aus WNW

8.4 C

10.4 C

10.3 C

10.4 C

32 W/m

0.00 mm

06:00

10.4 C

1011.3 hpa

88 %

3.2 km/h aus 115

9.7 km/h aus WNW

8.5 C

10.5 C

10.4 C

10.5 C

36 W/m

0.00 mm

06:05

10.4 C

1011.3 hpa

88 %

1.6 km/h aus 117

6.4 km/h aus W

8.5 C

10.5 C

10.4 C

10.5 C

48 W/m

0.00 mm

06:10

10.4 C

1011.3 hpa

88 %

0.0 km/h aus 114

0.0 km/h aus ---

8.5 C

10.5 C

10.4 C

10.5 C

61 W/m

0.00 mm

06:15

10.4 C

1011.4 hpa

88 %

0.0 km/h aus 116

6.4 km/h aus WNW

8.5 C

10.5 C

10.4 C

10.5 C

73 W/m

0.00 mm

06:20

10.5 C

1011.4 hpa

88 %

1.6 km/h aus 116

6.4 km/h aus WNW

8.6 C

10.6 C

10.5 C

10.6 C

81 W/m

0.00 mm

06:25

10.6 C

1011.4 hpa

88 %

1.6 km/h aus 117

8.0 km/h aus W

8.7 C

10.6 C

10.6 C

10.6 C

75 W/m

0.00 mm

06:30

10.6 C

1011.3 hpa

88 %

0.0 km/h aus 116

4.8 km/h aus NW

8.7 C

10.7 C

10.6 C

10.7 C

81 W/m

0.00 mm

06:35

10.7 C

1011.3 hpa

88 %

3.2 km/h aus 115

8.0 km/h aus W

8.8 C

10.7 C

10.7 C

10.7 C

85 W/m

0.00 mm

06:40

10.7 C

1011.3 hpa

88 %

3.2 km/h aus 114

9.7 km/h aus WSW

8.8 C

10.8 C

10.7 C

10.8 C

87 W/m

0.00 mm

06:45

10.8 C

1011.3 hpa

87 %

1.6 km/h aus 118

6.4 km/h aus WSW

8.7 C

10.8 C

10.8 C

10.8 C

91 W/m

0.00 mm

06:50

10.8 C

1011.3 hpa

87 %

0.0 km/h aus 116

6.4 km/h aus WSW

8.8 C

10.9 C

10.8 C

10.9 C

95 W/m

0.00 mm

06:55

10.9 C

1011.3 hpa

87 %

0.0 km/h aus 117

0.0 km/h aus ---

8.8 C

10.9 C

10.9 C

10.9 C

94 W/m

0.00 mm

07:00

10.9 C

1011.3 hpa

87 %

4.8 km/h aus 116

11.3 km/h aus W

8.9 C

10.9 C

10.9 C

11.0 C

94 W/m

0.00 mm

07:05

10.9 C

1011.3 hpa

87 %

4.8 km/h aus 113

11.3 km/h aus WNW

8.9 C

10.9 C

10.9 C

11.0 C

99 W/m

0.00 mm

07:10

10.9 C

1011.3 hpa

86 %

4.8 km/h aus 116

11.3 km/h aus W

8.7 C

10.9 C

10.9 C

10.9 C

102 W/m

0.00 mm

07:15

11.0 C

1011.2 hpa

86 %

4.8 km/h aus 117

9.7 km/h aus W

8.7 C

10.9 C

10.9 C

11.0 C

108 W/m

0.00 mm

07:20

11.1 C

1011.2 hpa

86 %

3.2 km/h aus 117

11.3 km/h aus WNW

8.8 C

11.1 C

11.1 C

11.1 C

116 W/m

0.00 mm

07:25

11.1 C

1011.2 hpa

85 %

6.4 km/h aus 117

16.1 km/h aus WNW

8.6 C

10.6 C

10.6 C

11.1 C

125 W/m

0.00 mm

07:30

11.1 C

1011.3 hpa

85 %

6.4 km/h aus 115

14.5 km/h aus WSW

8.7 C

10.7 C

10.7 C

11.1 C

135 W/m

0.00 mm

07:35

11.2 C

1011.3 hpa

85 %

0.0 km/h aus 115

4.8 km/h aus WSW

8.7 C

11.2 C

11.2 C

11.2 C

152 W/m

0.00 mm

07:40

11.3 C

1011.3 hpa

85 %

3.2 km/h aus 117

8.0 km/h aus W

8.8 C

11.3 C

11.3 C

11.3 C

167 W/m

0.00 mm

07:45

11.3 C

1011.2 hpa

85 %

6.4 km/h aus 117

16.1 km/h aus WSW

8.9 C

10.9 C

10.9 C

11.3 C

175 W/m

0.00 mm

07:50

11.4 C

1011.2 hpa

84 %

6.4 km/h aus 118

11.3 km/h aus W

8.8 C

11.0 C

11.1 C

11.4 C

191 W/m

0.00 mm

07:55

11.6 C

1011.2 hpa

85 %

4.8 km/h aus 116

9.7 km/h aus WSW

9.1 C

11.5 C

11.6 C

11.5 C

196 W/m

0.00 mm

08:00

11.7 C

1011.2 hpa

84 %

1.6 km/h aus 115

6.4 km/h aus WSW

9.1 C

11.6 C

11.7 C

11.6 C

205 W/m

0.00 mm

08:05

11.8 C

1011.2 hpa

84 %

4.8 km/h aus 116

9.7 km/h aus W

9.2 C

11.7 C

11.8 C

11.7 C

214 W/m

0.00 mm

08:10

11.9 C

1011.2 hpa

83 %

4.8 km/h aus 116

9.7 km/h aus W

9.1 C

11.8 C

11.9 C

11.8 C

226 W/m

0.00 mm

08:15

11.9 C

1011.2 hpa

82 %

3.2 km/h aus 117

8.0 km/h aus WNW

9.0 C

11.8 C

11.9 C

11.8 C

239 W/m

0.00 mm

08:20

12.0 C

1011.2 hpa

82 %

4.8 km/h aus 117

9.7 km/h aus WSW

9.0 C

11.9 C

12.0 C

11.9 C

260 W/m

0.00 mm

08:25

12.3 C

1011.2 hpa

82 %

3.2 km/h aus 114

9.7 km/h aus W

9.3 C

12.2 C

12.3 C

12.2 C

248 W/m

0.00 mm

08:30

12.4 C

1011.2 hpa

81 %

6.4 km/h aus 115

17.7 km/h aus W

9.3 C

12.0 C

12.2 C

12.3 C

282 W/m

0.00 mm

08:35

12.4 C

1011.2 hpa

81 %

6.4 km/h aus 117

17.7 km/h aus W

9.2 C

11.9 C

12.1 C

12.2 C

356 W/m

0.00 mm

08:40

12.4 C

1011.2 hpa

82 %

1.6 km/h aus 117

8.0 km/h aus NW

9.5 C

12.3 C

12.4 C

12.3 C

190 W/m

0.00 mm

08:45

12.2 C

1011.2 hpa

81 %

4.8 km/h aus 117

16.1 km/h aus W

9.1 C

12.1 C

12.2 C

12.1 C

98 W/m

0.00 mm

08:50

12.1 C

1011.2 hpa

82 %

6.4 km/h aus 114

17.7 km/h aus WSW

9.1 C

11.6 C

11.7 C

11.9 C

167 W/m

0.00 mm

08:55

12.3 C

1011.2 hpa

82 %

8.0 km/h aus 116

19.3 km/h aus WSW

9.3 C

11.6 C

11.7 C

12.2 C

277 W/m

0.00 mm

09:00

12.4 C

1011.2 hpa

82 %

6.4 km/h aus 117

17.7 km/h aus W

9.5 C

12.1 C

12.2 C

12.3 C

344 W/m

0.00 mm

09:05

12.8 C

1011.2 hpa

80 %

9.7 km/h aus 115

20.9 km/h aus WSW

9.5 C

11.9 C

12.1 C

12.7 C

564 W/m

0.00 mm

09:10

13.2 C

1011.2 hpa

80 %

8.0 km/h aus 117

17.7 km/h aus WSW

9.8 C

12.6 C

12.7 C

13.0 C

542 W/m

0.00 mm

09:15

13.3 C

1011.2 hpa

78 %

6.4 km/h aus 115

16.1 km/h aus WSW

9.6 C

13.0 C

13.2 C

13.1 C

483 W/m

0.00 mm

09:20

13.3 C

1011.2 hpa

78 %

6.4 km/h aus 115

17.7 km/h aus W

9.6 C

13.0 C

13.2 C

13.1 C

454 W/m

0.00 mm

09:25

13.4 C

1011.2 hpa

80 %

3.2 km/h aus 117

11.3 km/h aus WNW

10.0 C

13.2 C

13.4 C

13.2 C

361 W/m

0.00 mm

09:30

13.5 C

1011.2 hpa

79 %

4.8 km/h aus 117

11.3 km/h aus SSW

9.9 C

13.3 C

13.5 C

13.3 C

405 W/m

0.00 mm

09:35

13.4 C

1011.2 hpa

77 %

0.0 km/h aus 117

4.8 km/h aus WNW

9.5 C

13.2 C

13.4 C

13.2 C

389 W/m

0.00 mm

09:40

13.2 C

1011.2 hpa

77 %

4.8 km/h aus 115

16.1 km/h aus WSW

9.2 C

12.9 C

13.2 C

12.9 C

273 W/m

0.00 mm

09:45

13.5 C

1010.9 hpa

80 %

6.4 km/h aus 116

16.1 km/h aus SW

10.1 C

13.3 C

13.4 C

13.3 C

388 W/m

0.00 mm

09:50

13.8 C

1010.9 hpa

76 %

4.8 km/h aus 117

14.5 km/h aus SSW

9.7 C

13.6 C

13.8 C

13.6 C

886 W/m

0.00 mm

09:55

14.1 C

1010.9 hpa

77 %

1.6 km/h aus 117

8.0 km/h aus W

10.1 C

13.9 C

14.1 C

13.9 C

699 W/m

0.25 mm

10:00

14.1 C

1010.9 hpa

75 %

4.8 km/h aus 118

11.3 km/h aus WSW

9.7 C

13.8 C

14.1 C

13.8 C

702 W/m

0.00 mm

10:05

14.2 C

1010.9 hpa

74 %

6.4 km/h aus 114

22.5 km/h aus WNW

9.7 C

13.9 C

14.2 C

13.9 C

553 W/m

0.00 mm

10:10

14.4 C

1010.9 hpa

75 %

6.4 km/h aus 116

19.3 km/h aus WNW

10.0 C

14.1 C

14.4 C

14.1 C

646 W/m

0.00 mm

10:15

14.5 C

1010.8 hpa

74 %

6.4 km/h aus 117

16.1 km/h aus WNW

9.9 C

14.2 C

14.5 C

14.2 C

640 W/m

0.00 mm

10:20

14.5 C

1010.8 hpa

74 %

3.2 km/h aus 117

8.0 km/h aus WSW

9.9 C

14.2 C

14.5 C

14.2 C

669 W/m

0.00 mm

10:25

14.7 C

1010.8 hpa

74 %

4.8 km/h aus 115

8.0 km/h aus SSW

10.1 C

14.4 C

14.7 C

14.4 C

681 W/m

0.00 mm

10:30

15.3 C

1010.8 hpa

73 %

6.4 km/h aus 113

14.5 km/h aus W

10.5 C

15.0 C

15.3 C

15.0 C

759 W/m

0.00 mm

10:35

15.4 C

1010.8 hpa

71 %

6.4 km/h aus 117

16.1 km/h aus WSW

10.2 C

15.1 C

15.4 C

15.1 C

775 W/m

0.00 mm

10:40

15.2 C

1010.8 hpa

74 %

3.2 km/h aus 117

11.3 km/h aus WSW

10.6 C

14.9 C

15.2 C

14.9 C

747 W/m

0.00 mm

10:45

15.5 C

1010.8 hpa

72 %

8.0 km/h aus 117

17.7 km/h aus WSW

10.5 C

15.2 C

15.5 C

15.2 C

767 W/m

0.00 mm

10:50

15.8 C

1010.8 hpa

69 %

4.8 km/h aus 116

16.1 km/h aus S

10.1 C

15.4 C

15.8 C

15.4 C

775 W/m

0.00 mm

10:55

15.8 C

1010.8 hpa

67 %

6.4 km/h aus 114

16.1 km/h aus WSW

9.7 C

15.4 C

15.8 C

15.4 C

771 W/m

0.00 mm

11:00

15.8 C

1010.7 hpa

69 %

4.8 km/h aus 118

12.9 km/h aus SW

10.2 C

15.5 C

15.8 C

15.5 C

796 W/m

0.00 mm

11:05

16.0 C

1010.7 hpa

64 %

4.8 km/h aus 117

16.1 km/h aus W

9.2 C

15.5 C

16.0 C

15.5 C

811 W/m

0.00 mm

11:10

16.1 C

1010.7 hpa

65 %

3.2 km/h aus 117

11.3 km/h aus W

9.5 C

15.7 C

16.1 C

15.7 C

821 W/m

0.00 mm

11:15

16.5 C

1010.6 hpa

64 %

6.4 km/h aus 115

17.7 km/h aus WSW

9.7 C

16.1 C

16.5 C

16.1 C

828 W/m

0.00 mm

11:20

16.5 C

1010.6 hpa

63 %

8.0 km/h aus 116

16.1 km/h aus W

9.4 C

16.0 C

16.5 C

16.0 C

755 W/m

0.00 mm

11:25

16.5 C

1010.6 hpa

67 %

4.8 km/h aus 117

16.1 km/h aus W

10.3 C

16.2 C

16.5 C

16.2 C

838 W/m

0.00 mm

11:30

16.7 C

1010.5 hpa

65 %

8.0 km/h aus 117

16.1 km/h aus WNW

10.1 C

16.3 C

16.7 C

16.3 C

835 W/m

0.00 mm

11:35

17.1 C

1010.5 hpa

63 %

6.4 km/h aus 115

17.7 km/h aus WNW

10.0 C

16.6 C

17.1 C

16.6 C

833 W/m

0.00 mm

11:40

17.3 C

1010.5 hpa

61 %

4.8 km/h aus 113

16.1 km/h aus WSW

9.7 C

16.8 C

17.3 C

16.8 C

852 W/m

0.00 mm

11:45

17.2 C

1010.3 hpa

61 %

8.0 km/h aus 117

17.7 km/h aus WSW

9.6 C

16.7 C

17.2 C

16.7 C

853 W/m

0.00 mm

11:50

17.2 C

1010.3 hpa

67 %

4.8 km/h aus 117

12.9 km/h aus W

11.0 C

16.9 C

17.2 C

16.9 C

861 W/m

0.00 mm

11:55

17.4 C

1010.3 hpa

66 %

1.6 km/h aus 116

9.7 km/h aus NW

11.0 C

17.2 C

17.4 C

17.2 C

858 W/m

0.00 mm

12:00

17.6 C

1010.4 hpa

63 %

6.4 km/h aus 115

19.3 km/h aus WNW

10.4 C

17.2 C

17.6 C

17.2 C

859 W/m

0.00 mm

12:05

18.1 C

1010.4 hpa

63 %

6.4 km/h aus 116

19.3 km/h aus WNW

10.9 C

17.7 C

18.1 C

17.7 C

873 W/m

0.00 mm

12:10

18.1 C

1010.4 hpa

64 %

6.4 km/h aus 117

17.7 km/h aus NW

11.1 C

17.8 C

18.1 C

17.8 C

854 W/m

0.00 mm

12:15

17.6 C

1010.4 hpa

62 %

3.2 km/h aus 117

14.5 km/h aus WSW

10.2 C

17.2 C

17.6 C

17.2 C

858 W/m

0.00 mm

12:20

17.9 C

1010.4 hpa

59 %

8.0 km/h aus 116

19.3 km/h aus WNW

9.8 C

17.4 C

17.9 C

17.4 C

891 W/m

0.00 mm

12:25

18.0 C

1010.4 hpa

60 %

8.0 km/h aus 115

19.3 km/h aus WNW

10.1 C

17.5 C

18.0 C

17.5 C

886 W/m

0.00 mm

12:30

18.3 C

1010.4 hpa

60 %

8.0 km/h aus 116

17.7 km/h aus NW

10.4 C

17.8 C

18.3 C

17.8 C

896 W/m

0.00 mm

12:35

18.2 C

1010.4 hpa

58 %

4.8 km/h aus 117

16.1 km/h aus NNW

9.8 C

17.7 C

18.2 C

17.7 C

900 W/m

0.00 mm

12:40

18.6 C

1010.4 hpa

57 %

6.4 km/h aus 116

16.1 km/h aus WNW

9.9 C

18.0 C

18.6 C

18.0 C

903 W/m

0.00 mm

12:45

19.0 C

1010.2 hpa

57 %

4.8 km/h aus 116

27.4 km/h aus WNW

10.3 C

18.5 C

19.0 C

18.5 C

898 W/m

0.00 mm

12:50

18.8 C

1010.2 hpa

56 %

4.8 km/h aus 113

16.1 km/h aus WNW

9.9 C

18.3 C

18.8 C

18.3 C

903 W/m

0.00 mm

12:55

18.4 C

1010.2 hpa

56 %

4.8 km/h aus 117

16.1 km/h aus WNW

9.4 C

17.8 C

18.4 C

17.8 C

906 W/m

0.00 mm

13:00

18.9 C

1010.2 hpa

56 %

3.2 km/h aus 117

16.1 km/h aus W

9.9 C

18.3 C

18.9 C

18.3 C

905 W/m

0.00 mm

13:05

18.9 C

1010.2 hpa

52 %

11.3 km/h aus 116

20.9 km/h aus W

8.9 C

18.2 C

18.9 C

18.2 C

902 W/m

0.00 mm

13:10

18.8 C

1010.2 hpa

55 %

4.8 km/h aus 116

11.3 km/h aus WSW

9.5 C

18.2 C

18.8 C

18.2 C

908 W/m

0.00 mm

13:15

19.1 C

1010.2 hpa

56 %

4.8 km/h aus 116

17.7 km/h aus WNW

10.1 C

18.5 C

19.1 C

18.5 C

908 W/m

0.00 mm

13:20

19.3 C

1010.2 hpa

52 %

6.4 km/h aus 117

16.1 km/h aus WSW

9.2 C

18.6 C

19.3 C

18.6 C

910 W/m

0.00 mm

13:25

19.4 C

1010.2 hpa

51 %

11.3 km/h aus 117

19.3 km/h aus W

9.0 C

18.7 C

19.4 C

18.7 C

903 W/m

0.00 mm

13:30

19.3 C

1010.0 hpa

50 %

6.4 km/h aus 116

14.5 km/h aus WSW

8.6 C

18.6 C

19.3 C

18.6 C

898 W/m

0.00 mm

13:35

19.6 C

1010.0 hpa

50 %

8.0 km/h aus 115

22.5 km/h aus SSW

8.8 C

18.8 C

19.6 C

18.8 C

970 W/m

0.00 mm

13:40

19.4 C

1010.0 hpa

48 %

8.0 km/h aus 117

19.3 km/h aus WSW

8.1 C

18.6 C

19.4 C

18.6 C

810 W/m

0.00 mm

13:45

19.4 C

1009.9 hpa

55 %

4.8 km/h aus 117

16.1 km/h aus WNW

10.2 C

18.9 C

19.4 C

18.9 C

747 W/m

0.00 mm

13:50

19.8 C

1009.9 hpa

51 %

9.7 km/h aus 116

19.3 km/h aus W

9.3 C

19.1 C

19.8 C

19.1 C

776 W/m

0.00 mm

13:55

20.1 C

1009.9 hpa

51 %

8.0 km/h aus 114

19.3 km/h aus W

9.6 C

19.4 C

20.1 C

19.4 C

1054 W/m

0.00 mm

14:00

19.7 C

1009.8 hpa

49 %

11.3 km/h aus 116

24.1 km/h aus NW

8.6 C

18.8 C

19.7 C

18.8 C

847 W/m

0.00 mm

14:05

19.6 C

1009.8 hpa

51 %

6.4 km/h aus 115

17.7 km/h aus WNW

9.2 C

18.9 C

19.6 C

18.9 C

724 W/m

0.00 mm

14:10

20.3 C

1009.8 hpa

53 %

9.7 km/h aus 117

20.9 km/h aus NW

10.4 C

19.7 C

20.3 C

19.7 C

925 W/m

0.00 mm

14:15

20.2 C

1009.7 hpa

52 %

9.7 km/h aus 116

20.9 km/h aus W

10.0 C

19.6 C

20.2 C

19.6 C

848 W/m

0.00 mm

14:20

20.0 C

1009.7 hpa

50 %

9.7 km/h aus 115

19.3 km/h aus W

9.3 C

19.3 C

20.0 C

19.3 C

489 W/m

0.00 mm

14:25

19.1 C

1009.7 hpa

52 %

3.2 km/h aus 117

14.5 km/h aus W

9.0 C

18.4 C

19.1 C

18.4 C

383 W/m

0.00 mm

14:30

18.9 C

1009.7 hpa

52 %

11.3 km/h aus 116

19.3 km/h aus WSW

8.9 C

18.2 C

18.9 C

18.2 C

391 W/m

0.00 mm

14:35

19.3 C

1009.7 hpa

54 %

11.3 km/h aus 117

20.9 km/h aus WNW

9.7 C

18.7 C

19.3 C

18.7 C

455 W/m

0.00 mm

14:40

19.2 C

1009.7 hpa

51 %

8.0 km/h aus 114

17.7 km/h aus W

8.8 C

18.4 C

19.2 C

18.4 C

394 W/m

0.00 mm

14:45

19.7 C

1009.5 hpa

52 %

8.0 km/h aus 116

20.9 km/h aus WNW

9.5 C

19.0 C

19.7 C

19.0 C

557 W/m

0.00 mm

14:50

19.6 C

1009.5 hpa

49 %

8.0 km/h aus 116

22.5 km/h aus W

8.6 C

18.8 C

19.6 C

18.8 C

458 W/m

0.00 mm

14:55

19.9 C

1009.5 hpa

51 %

9.7 km/h aus 117

20.9 km/h aus WNW

9.5 C

19.3 C

19.9 C

19.3 C

860 W/m

0.00 mm

15:00

20.1 C

1009.3 hpa

47 %

14.5 km/h aus 116

20.9 km/h aus W

8.4 C

18.4 C

19.3 C

19.2 C

796 W/m

0.00 mm

15:05

20.2 C

1009.3 hpa

50 %

9.7 km/h aus 113

20.9 km/h aus WNW

9.5 C

19.5 C

20.2 C

19.5 C

821 W/m

0.00 mm

15:10

20.2 C

1009.3 hpa

50 %

3.2 km/h aus 117

16.1 km/h aus WNW

9.4 C

19.4 C

20.2 C

19.4 C

817 W/m

0.00 mm

15:15

20.6 C

1009.1 hpa

49 %

6.4 km/h aus 117

22.5 km/h aus W

9.5 C

19.8 C

20.6 C

19.8 C

799 W/m

0.00 mm

15:20

20.4 C

1009.1 hpa

49 %

4.8 km/h aus 117

19.3 km/h aus WSW

9.3 C

19.6 C

20.4 C

19.6 C

790 W/m

0.00 mm

15:25

20.8 C

1009.1 hpa

49 %

11.3 km/h aus 115

22.5 km/h aus W

9.7 C

19.9 C

20.8 C

19.9 C

806 W/m

0.00 mm

15:30

20.6 C

1009.0 hpa

51 %

6.4 km/h aus 116

17.7 km/h aus SSW

10.1 C

19.8 C

20.6 C

19.8 C

799 W/m

0.00 mm

15:35

20.8 C

1009.0 hpa

49 %

11.3 km/h aus 117

25.7 km/h aus W

9.7 C

19.9 C

20.8 C

19.9 C

792 W/m

0.00 mm

15:40

20.7 C

1009.0 hpa

51 %

8.0 km/h aus 116

19.3 km/h aus WSW

10.2 C

19.9 C

20.7 C

19.9 C

738 W/m

0.00 mm

15:45

20.9 C

1009.0 hpa

51 %

6.4 km/h aus 114

14.5 km/h aus WNW

10.4 C

20.1 C

20.9 C

20.1 C

767 W/m

0.00 mm

15:50

21.2 C

1009.0 hpa

52 %

6.4 km/h aus 114

17.7 km/h aus W

10.9 C

20.3 C

21.2 C

20.3 C

787 W/m

0.00 mm

15:55

21.4 C

1009.0 hpa

48 %

8.0 km/h aus 117

16.1 km/h aus NW

9.9 C

20.4 C

21.4 C

20.4 C

823 W/m

0.00 mm

16:00

20.8 C

1008.9 hpa

49 %

4.8 km/h aus 117

14.5 km/h aus WSW

9.7 C

19.9 C

20.8 C

19.9 C

279 W/m

0.00 mm

16:05

20.3 C

1008.9 hpa

52 %

3.2 km/h aus 117

11.3 km/h aus W

10.1 C

19.7 C

20.3 C

19.7 C

345 W/m

0.00 mm

16:10

20.4 C

1008.9 hpa

52 %

1.6 km/h aus 114

8.0 km/h aus WNW

10.2 C

19.7 C

20.4 C

19.7 C

339 W/m

0.00 mm

16:15

20.4 C

1009.0 hpa

52 %

8.0 km/h aus 116

17.7 km/h aus WNW

10.3 C

19.8 C

20.4 C

19.8 C

527 W/m

0.00 mm

16:20

20.9 C

1009.0 hpa

51 %

8.0 km/h aus 118

16.1 km/h aus WNW

10.4 C

20.1 C

20.9 C

20.1 C

953 W/m

0.00 mm

16:25

21.2 C

1009.0 hpa

50 %

9.7 km/h aus 117

20.9 km/h aus WNW

10.3 C

20.2 C

21.2 C

20.2 C

580 W/m

0.00 mm

16:30

20.9 C

1008.8 hpa

50 %

9.7 km/h aus 116

20.9 km/h aus WNW

10.1 C

20.0 C

20.9 C

20.0 C

430 W/m

0.00 mm

16:35

20.3 C

1008.8 hpa

51 %

4.8 km/h aus 114

17.7 km/h aus WNW

9.9 C

19.6 C

20.3 C

19.6 C

331 W/m

0.00 mm

16:40

20.6 C

1008.8 hpa

52 %

4.8 km/h aus 117

17.7 km/h aus NW

10.4 C

19.9 C

20.6 C

19.9 C

400 W/m

0.00 mm

16:45

20.3 C

1008.9 hpa

51 %

8.0 km/h aus 117

22.5 km/h aus NW

9.8 C

19.6 C

20.3 C

19.6 C

335 W/m

0.00 mm

16:50

20.3 C

1008.9 hpa

55 %

1.6 km/h aus 117

6.4 km/h aus WNW

11.0 C

19.8 C

20.3 C

19.8 C

448 W/m

0.00 mm

16:55

20.8 C

1008.9 hpa

51 %

8.0 km/h aus 114

16.1 km/h aus WSW

10.3 C

20.0 C

20.8 C

20.0 C

564 W/m

0.00 mm

17:00

20.6 C

1008.7 hpa

52 %

8.0 km/h aus 116

19.3 km/h aus NW

10.4 C

19.9 C

20.6 C

19.9 C

416 W/m

0.00 mm

17:05

20.4 C

1008.7 hpa

52 %

9.7 km/h aus 117

19.3 km/h aus WNW

10.2 C

19.7 C

20.4 C

19.7 C

325 W/m

0.00 mm

17:10

20.1 C

1008.7 hpa

53 %

9.7 km/h aus 116

17.7 km/h aus WSW

10.2 C

19.6 C

20.1 C

19.6 C

265 W/m

0.00 mm

17:15

19.9 C

1008.7 hpa

54 %

8.0 km/h aus 116

19.3 km/h aus W

10.4 C

19.4 C

19.9 C

19.4 C

312 W/m

0.00 mm

17:20

19.9 C

1008.7 hpa

54 %

6.4 km/h aus 115

17.7 km/h aus WNW

10.3 C

19.4 C

19.9 C

19.4 C

263 W/m

0.00 mm

17:25

19.7 C

1008.7 hpa

55 %

6.4 km/h aus 118

17.7 km/h aus WNW

10.4 C

19.2 C

19.7 C

19.2 C

242 W/m

0.00 mm

17:30

19.9 C

1008.6 hpa

57 %

6.4 km/h aus 115

19.3 km/h aus WNW

11.1 C

19.6 C

19.9 C

19.6 C

312 W/m

0.00 mm

17:35

19.8 C

1008.6 hpa

54 %

11.3 km/h aus 116

17.7 km/h aus W

10.3 C

19.3 C

19.8 C

19.3 C

239 W/m

0.00 mm

17:40

19.8 C

1008.6 hpa

56 %

8.0 km/h aus 114

14.5 km/h aus W

10.7 C

19.4 C

19.8 C

19.4 C

242 W/m

0.00 mm

17:45

19.8 C

1008.6 hpa

56 %

6.4 km/h aus 116

14.5 km/h aus W

10.7 C

19.4 C

19.8 C

19.4 C

262 W/m

0.00 mm

17:50

19.9 C

1008.6 hpa

55 %

4.8 km/h aus 117

14.5 km/h aus W

10.6 C

19.4 C

19.9 C

19.4 C

279 W/m

0.00 mm

17:55

19.7 C

1008.6 hpa

54 %

6.4 km/h aus 117

19.3 km/h aus WNW

10.1 C

19.1 C

19.7 C

19.1 C

248 W/m

0.00 mm

18:00

19.6 C

1008.6 hpa

56 %

8.0 km/h aus 116

17.7 km/h aus WNW

10.5 C

19.1 C

19.6 C

19.1 C

221 W/m

0.00 mm

18:05

19.6 C

1008.6 hpa

56 %

3.2 km/h aus 113

14.5 km/h aus WNW

10.5 C

19.1 C

19.6 C

19.1 C

205 W/m

0.00 mm

18:10

19.5 C

1008.6 hpa

56 %

3.2 km/h aus 117

14.5 km/h aus WNW

10.5 C

19.1 C

19.5 C

19.1 C

194 W/m

0.00 mm

18:15

19.6 C

1008.4 hpa

57 %

3.2 km/h aus 117

11.3 km/h aus NW

10.8 C

19.2 C

19.6 C

19.2 C

200 W/m

0.00 mm

18:20

19.5 C

1008.4 hpa

58 %

1.6 km/h aus 116

12.9 km/h aus WNW

11.0 C

19.2 C

19.5 C

19.2 C

193 W/m

0.00 mm

18:25

19.5 C

1008.4 hpa

60 %

1.6 km/h aus 115

11.3 km/h aus WNW

11.5 C

19.2 C

19.5 C

19.2 C

209 W/m

0.00 mm

18:30

19.5 C

1008.3 hpa

58 %

4.8 km/h aus 116

16.1 km/h aus WNW

11.0 C

19.2 C

19.5 C

19.2 C

230 W/m

0.00 mm

18:35

19.6 C

1008.3 hpa

59 %

4.8 km/h aus 116

17.7 km/h aus WNW

11.3 C

19.3 C

19.6 C

19.3 C

226 W/m

0.00 mm

18:40

19.5 C

1008.3 hpa

59 %

3.2 km/h aus 117

8.0 km/h aus WNW

11.3 C

19.2 C

19.5 C

19.2 C

198 W/m

0.00 mm

18:45

19.4 C

1008.2 hpa

61 %

1.6 km/h aus 116

17.7 km/h aus WNW

11.7 C

19.2 C

19.4 C

19.2 C

207 W/m

0.00 mm

18:50

19.3 C

1008.2 hpa

58 %

9.7 km/h aus 115

16.1 km/h aus W

10.9 C

18.9 C

19.3 C

18.9 C

194 W/m

0.00 mm

18:55

19.2 C

1008.2 hpa

59 %

6.4 km/h aus 116

16.1 km/h aus WNW

11.0 C

18.8 C

19.2 C

18.8 C

177 W/m

0.00 mm

19:00

19.1 C

1008.2 hpa

61 %

4.8 km/h aus 117

14.5 km/h aus WNW

11.4 C

18.8 C

19.1 C

18.8 C

161 W/m

0.00 mm

19:05

19.1 C

1008.2 hpa

59 %

6.4 km/h aus 117

14.5 km/h aus WNW

10.9 C

18.7 C

19.1 C

18.7 C

154 W/m

0.00 mm

19:10

19.0 C

1008.2 hpa

59 %

3.2 km/h aus 115

11.3 km/h aus WNW

10.8 C

18.6 C

19.0 C

18.6 C

156 W/m

0.00 mm

19:15

19.1 C

1008.1 hpa

61 %

0.0 km/h aus 116

6.4 km/h aus WNW

11.4 C

18.8 C

19.1 C

18.8 C

170 W/m

0.00 mm

19:20

19.1 C

1008.1 hpa

61 %

1.6 km/h aus 117

6.4 km/h aus WNW

11.4 C

18.8 C

19.1 C

18.8 C

161 W/m

0.00 mm

19:25

19.0 C

1008.1 hpa

59 %

8.0 km/h aus 117

17.7 km/h aus WNW

10.8 C

18.6 C

19.0 C

18.6 C

141 W/m

0.00 mm

19:30

18.9 C

1008.2 hpa

60 %

4.8 km/h aus 116

11.3 km/h aus NNW

11.0 C

18.5 C

18.9 C

18.5 C

133 W/m

0.00 mm

19:35

18.9 C

1008.2 hpa

59 %

6.4 km/h aus 115

11.3 km/h aus NW

10.7 C

18.4 C

18.9 C

18.4 C

125 W/m

0.00 mm

19:40

18.8 C

1008.2 hpa

59 %

1.6 km/h aus 116

8.0 km/h aus NW

10.6 C

18.4 C

18.8 C

18.4 C

111 W/m

0.00 mm

19:45

18.8 C

1008.2 hpa

60 %

1.6 km/h aus 116

9.7 km/h aus NW

10.8 C

18.4 C

18.8 C

18.4 C

112 W/m

0.00 mm

19:50

18.7 C

1008.2 hpa

59 %

0.0 km/h aus 116

6.4 km/h aus WNW

10.5 C

18.3 C

18.7 C

18.3 C

106 W/m

0.00 mm

19:55

18.7 C

1008.2 hpa

59 %

0.0 km/h aus 115

6.4 km/h aus WNW

10.5 C

18.3 C

18.7 C

18.3 C

114 W/m

0.00 mm

20:00

18.8 C

1008.1 hpa

59 %

0.0 km/h aus 115

0.0 km/h aus ---

10.6 C

18.3 C

18.8 C

18.3 C

116 W/m

0.00 mm

20:05

18.7 C

1008.1 hpa

59 %

0.0 km/h aus 117

4.8 km/h aus WNW

10.5 C

18.3 C

18.7 C

18.3 C

101 W/m

0.00 mm

20:10

18.7 C

1008.1 hpa

59 %

1.6 km/h aus 117

6.4 km/h aus NW

10.5 C

18.2 C

18.7 C

18.2 C

77 W/m

0.00 mm

20:15

18.7 C

1008.1 hpa

59 %

1.6 km/h aus 117

8.0 km/h aus WNW

10.5 C

18.2 C

18.7 C

18.2 C

53 W/m

0.00 mm

20:20

18.7 C

1008.1 hpa

59 %

1.6 km/h aus 114

8.0 km/h aus W

10.5 C

18.2 C

18.7 C

18.2 C

51 W/m

0.00 mm

20:25

18.6 C

1008.1 hpa

59 %

3.2 km/h aus 115

17.7 km/h aus NW

10.4 C

18.2 C

18.6 C

18.2 C

56 W/m

0.00 mm

20:30

18.5 C

1008.1 hpa

59 %

3.2 km/h aus 117

9.7 km/h aus NNW

10.3 C

18.1 C

18.5 C

18.1 C

68 W/m

0.00 mm

20:35

18.4 C

1008.1 hpa

59 %

1.6 km/h aus 118

8.0 km/h aus NW

10.3 C

17.9 C

18.4 C

17.9 C

72 W/m

0.00 mm

20:40

18.3 C

1008.1 hpa

57 %

0.0 km/h aus 117

6.4 km/h aus WNW

9.7 C

17.8 C

18.3 C

17.8 C

52 W/m

0.00 mm

20:45

18.3 C

1008.1 hpa

58 %

1.6 km/h aus 114

6.4 km/h aus NW

9.9 C

17.7 C

18.3 C

17.7 C

36 W/m

0.00 mm

20:50

18.2 C

1008.1 hpa

58 %

0.0 km/h aus 116

0.0 km/h aus ---

9.8 C

17.6 C

18.2 C

17.6 C

31 W/m

0.00 mm

20:55

18.1 C

1008.1 hpa

57 %

0.0 km/h aus 116

3.2 km/h aus NW

9.4 C

17.4 C

18.1 C

17.4 C

30 W/m

0.00 mm

21:00

17.9 C

1008.2 hpa

58 %

0.0 km/h aus 117

6.4 km/h aus NW

9.6 C

17.4 C

17.9 C

17.4 C

28 W/m

0.00 mm

21:05

17.8 C

1008.2 hpa

58 %

0.0 km/h aus 116

6.4 km/h aus NW

9.5 C

17.2 C

17.8 C

17.2 C

24 W/m

0.00 mm

21:10

17.7 C

1008.2 hpa

58 %

1.6 km/h aus 113

8.0 km/h aus NW

9.3 C

17.1 C

17.7 C

17.1 C

22 W/m

0.00 mm

21:15

17.7 C

1008.3 hpa

58 %

0.0 km/h aus 117

8.0 km/h aus NW

9.3 C

17.1 C

17.7 C

17.1 C

19 W/m

0.00 mm

21:20

17.5 C

1008.3 hpa

59 %

3.2 km/h aus 117

9.7 km/h aus NW

9.4 C

16.9 C

17.5 C

16.9 C

17 W/m

0.00 mm

21:25

17.4 C

1008.3 hpa

60 %

6.4 km/h aus 116

14.5 km/h aus NW

9.5 C

16.8 C

17.4 C

16.8 C

12 W/m

0.00 mm

21:30

17.2 C

1008.4 hpa

62 %

1.6 km/h aus 115

12.9 km/h aus NW

9.9 C

16.7 C

17.2 C

16.7 C

9 W/m

0.00 mm

21:35

17.1 C

1008.4 hpa

63 %

4.8 km/h aus 115

16.1 km/h aus NW

10.0 C

16.6 C

17.1 C

16.6 C

5 W/m

0.00 mm

21:40

16.9 C

1008.4 hpa

65 %

3.2 km/h aus 117

11.3 km/h aus NW

10.3 C

16.6 C

16.9 C

16.6 C

1 W/m

0.00 mm

21:45

16.8 C

1008.6 hpa

65 %

3.2 km/h aus 116

9.7 km/h aus NNW

10.2 C

16.4 C

16.8 C

16.4 C

0 W/m

0.00 mm

21:50

16.7 C

1008.6 hpa

66 %

1.6 km/h aus 117

11.3 km/h aus NNW

10.3 C

16.3 C

16.7 C

16.3 C

0 W/m

0.00 mm

21:55

16.5 C

1008.6 hpa

67 %

3.2 km/h aus 115

9.7 km/h aus NW

10.3 C

16.2 C

16.5 C

16.2 C

0 W/m

0.00 mm

22:00

16.3 C

1008.6 hpa

67 %

4.8 km/h aus 114

14.5 km/h aus NW

10.2 C

15.9 C

16.3 C

15.9 C

0 W/m

0.00 mm

22:05

16.2 C

1008.6 hpa

67 %

4.8 km/h aus 116

11.3 km/h aus NNW

10.0 C

15.8 C

16.2 C

15.8 C

0 W/m

0.00 mm

22:10

16.1 C

1008.6 hpa

68 %

3.2 km/h aus 117

11.3 km/h aus NNW

10.1 C

15.7 C

16.1 C

15.7 C

0 W/m

0.00 mm

22:15

15.9 C

1008.8 hpa

68 %

4.8 km/h aus 117

14.5 km/h aus NW

10.0 C

15.5 C

15.9 C

15.5 C

0 W/m

0.00 mm

22:20

15.8 C

1008.8 hpa

69 %

4.8 km/h aus 114

12.9 km/h aus NNW

10.1 C

15.4 C

15.8 C

15.4 C

0 W/m

0.00 mm

22:25

15.7 C

1008.8 hpa

69 %

3.2 km/h aus 115

9.7 km/h aus NNW

10.0 C

15.3 C

15.7 C

15.3 C

0 W/m

0.00 mm

22:30

15.6 C

1008.9 hpa

69 %

3.2 km/h aus 117

11.3 km/h aus NNW

9.9 C

15.2 C

15.6 C

15.2 C

0 W/m

0.00 mm

22:35

15.4 C

1008.9 hpa

70 %

4.8 km/h aus 116

14.5 km/h aus NW

10.0 C

15.1 C

15.4 C

15.1 C

0 W/m

0.00 mm

22:40

15.4 C

1008.9 hpa

70 %

1.6 km/h aus 116

9.7 km/h aus NNW

9.9 C

15.1 C

15.4 C

15.1 C

0 W/m

0.00 mm

22:45

15.3 C

1009.0 hpa

71 %

0.0 km/h aus 116

3.2 km/h aus NNW

10.0 C

14.9 C

15.3 C

14.9 C

0 W/m

0.00 mm

22:50

15.2 C

1009.0 hpa

71 %

0.0 km/h aus 114

4.8 km/h aus NNW

10.0 C

14.9 C

15.2 C

14.9 C

0 W/m

0.00 mm

22:55

15.2 C

1009.0 hpa

72 %

0.0 km/h aus 117

3.2 km/h aus NNW

10.2 C

14.8 C

15.2 C

14.8 C

0 W/m

0.00 mm

23:00

15.1 C

1009.0 hpa

72 %

0.0 km/h aus 116

6.4 km/h aus NNW

10.0 C

14.7 C

15.1 C

14.7 C

0 W/m

0.00 mm

23:05

15.0 C

1009.0 hpa

72 %

0.0 km/h aus 116

1.6 km/h aus NNW

10.0 C

14.7 C

15.0 C

14.7 C

0 W/m

0.00 mm

23:10

14.9 C

1009.0 hpa

72 %

0.0 km/h aus 115

0.0 km/h aus ---

9.9 C

14.6 C

14.9 C

14.6 C

0 W/m

0.00 mm

23:15

14.9 C

1009.0 hpa

73 %

0.0 km/h aus 114

0.0 km/h aus ---

10.1 C

14.6 C

14.9 C

14.6 C

0 W/m

0.00 mm

23:20

14.8 C

1009.0 hpa

73 %

0.0 km/h aus 116

0.0 km/h aus ---

10.0 C

14.4 C

14.8 C

14.4 C

0 W/m

0.00 mm

23:25

14.7 C

1009.0 hpa

73 %

0.0 km/h aus 117

6.4 km/h aus NNW

9.9 C

14.4 C

14.7 C

14.4 C

0 W/m

0.00 mm

23:30

14.7 C

1009.1 hpa

74 %

0.0 km/h aus 117

3.2 km/h aus NNW

10.1 C

14.3 C

14.7 C

14.3 C

0 W/m

0.00 mm

23:35

14.6 C

1009.1 hpa

74 %

0.0 km/h aus 116

6.4 km/h aus NNW

10.0 C

14.2 C

14.6 C

14.2 C

0 W/m

0.00 mm

23:40

14.5 C

1009.1 hpa

74 %

0.0 km/h aus 115

0.0 km/h aus ---

9.9 C

14.2 C

14.5 C

14.2 C

0 W/m

0.00 mm

23:45

14.4 C

1009.1 hpa

75 %

0.0 km/h aus 117

0.0 km/h aus ---

10.0 C

14.1 C

14.4 C

14.1 C

0 W/m

0.00 mm

23:50

14.3 C

1009.1 hpa

75 %

0.0 km/h aus 117

0.0 km/h aus ---

10.0 C

14.1 C

14.3 C

14.1 C

0 W/m

0.00 mm

23:55

14.2 C

1009.1 hpa

75 %

0.0 km/h aus 116

4.8 km/h aus NNW

9.9 C

13.9 C

14.2 C

13.9 C

0 W/m

0.00 mm